IZ0QWM-13 Scandriglia IT current weather conditions

sailwx.info

Wind from 345 at 0 knots gusting 2

Air temperature 16.1° C
Dewpoint 9.3° C

Last reported at 2018-Apr-22 20:03 UTC.
Time now 2018-Apr-22 20:20 UTC

Location: N 42°10' E 012°47'.
View on Google Maps.

See reports from other nearby stations

  
Tides and Currents Weather Stations Pressure Air Temp Water Temp Dewpoint Dewpoint Depression Visibility Wind Speed Wind Dir Waves Ship Positions
date/time (UTC)wind fromknots sea level pressurealtimeterstation pressurevisibilityair tempwater tempwave heightnotes
2018-Apr-22 20:03 345 0 gusting 2 16.1
2018-Apr-22 19:53 351 0 gusting 2 16.7
2018-Apr-22 19:43 351 0 gusting 1 16.7
2018-Apr-22 19:33 348 0 gusting 2 17.2
2018-Apr-22 19:23 345 1 gusting 4 17.2
2018-Apr-22 19:12 347 2 gusting 4 17.8
2018-Apr-22 19:02 348 0 gusting 2 17.8
2018-Apr-22 18:52 349 0 gusting 2 17.8
2018-Apr-22 18:42 350 0 gusting 2 18.3
2018-Apr-22 18:32 347 1 gusting 3 18.9
2018-Apr-22 18:22 347 1 gusting 3 19.4
2018-Apr-22 18:12 355 1 gusting 2 20.0
2018-Apr-22 18:02 021 0 gusting 2 20.0
2018-Apr-22 17:52 012 0 gusting 3 20.6
2018-Apr-22 17:42 090 1 gusting 5 21.1
2018-Apr-22 17:32 090 1 gusting 5 21.1
2018-Apr-22 17:22 348 0 gusting 2 22.2
2018-Apr-22 17:12 030 0 gusting 4 22.2
2018-Apr-22 17:02 22.8
2018-Apr-22 16:52 018 0 gusting 3 22.8
2018-Apr-22 16:42 113 1 gusting 7 22.8
2018-Apr-22 16:32 123 1 gusting 6 23.3
2018-Apr-22 16:22 111 1 gusting 6 23.3
2018-Apr-22 16:12 112 1 gusting 5 23.3
2018-Apr-22 16:02 135 0 gusting 3 23.9
2018-Apr-22 15:52 090 0 gusting 3 23.9
2018-Apr-22 15:42 029 0 gusting 6 23.9
2018-Apr-22 15:32 351 1 gusting 7 24.4
2018-Apr-22 15:22 350 1 gusting 7 25.0
2018-Apr-22 15:12 026 0 gusting 2 25.0
2018-Apr-22 15:02 135 1 gusting 5 25.0
2018-Apr-22 14:52 106 0 gusting 3 25.6
2018-Apr-22 14:42 135 0 gusting 5 25.6
2018-Apr-22 14:32 153 1 gusting 5 26.1
2018-Apr-22 14:22 099 1 gusting 4 26.1
2018-Apr-22 14:11 355 0 gusting 3 26.1
2018-Apr-22 14:01 270 0 gusting 5 26.1
2018-Apr-22 13:51 139 1 gusting 5 26.1
2018-Apr-22 13:41 163 0 gusting 7 26.1
2018-Apr-22 13:31 166 0 gusting 4 26.1
2018-Apr-22 13:21 158 0 gusting 4 26.1
2018-Apr-22 13:11 213 0 gusting 2 26.1
2018-Apr-22 13:01 270 0 gusting 4 25.6
2018-Apr-22 12:51 225 0 gusting 2 25.6
2018-Apr-22 12:41 225 0 gusting 2 25.6
2018-Apr-22 12:31 327 1 gusting 5 25.6
2018-Apr-22 12:21 308 0 gusting 4 25.6
2018-Apr-22 12:11 329 0 gusting 5 25.0
2018-Apr-22 12:01 155 0 gusting 4 25.0
2018-Apr-22 11:51 189 0 gusting 6 25.0
2018-Apr-22 11:41 270 0 gusting 2 24.4
2018-Apr-22 11:31 315 0 gusting 3 24.4
2018-Apr-22 11:21 300 0 gusting 3 24.4
2018-Apr-22 11:11 315 1 gusting 5 24.4
2018-Apr-22 11:01 315 0 gusting 4 23.9
2018-Apr-22 10:51 302 0 gusting 4 23.9
2018-Apr-22 10:41 315 1 gusting 5 23.9
2018-Apr-22 10:31 315 0 gusting 4 23.9
2018-Apr-22 10:21 329 0 gusting 3 23.3
2018-Apr-22 10:11 336 0 gusting 5 23.3
2018-Apr-22 10:01 336 0 gusting 4 23.3
2018-Apr-22 09:51 315 0 gusting 2 23.3
2018-Apr-22 09:41 240 22.8
2018-Apr-22 09:31 311 0 gusting 3 22.8
2018-Apr-22 09:21 309 0 gusting 2 22.8
2018-Apr-22 09:11 317 0 gusting 2 22.8
2018-Apr-22 09:00 306 0 gusting 2 22.2
2018-Apr-22 08:50 302 0 gusting 2 22.2
2018-Apr-22 08:40 304 0 gusting 2 20.6
2018-Apr-22 08:30 306 0 gusting 2 19.4
2018-Apr-22 08:20 270 18.3
2018-Apr-22 08:10 270 16.7
2018-Apr-22 08:00 315 16.1
2018-Apr-22 07:50 233 15.6
2018-Apr-22 07:40 306 15.0
2018-Apr-22 07:30 307 14.4
2018-Apr-22 07:20 270 13.9
2018-Apr-22 07:10 270 13.9
2018-Apr-22 07:00 306 13.3
2018-Apr-22 06:50 270 12.8
2018-Apr-22 06:40 12.2
2018-Apr-22 06:30 270 12.2
2018-Apr-22 06:20 270 11.7
2018-Apr-22 06:10 217 11.7
2018-Apr-22 06:00 206 11.7
2018-Apr-22 05:50 225 11.1
2018-Apr-22 05:40 236 11.1
2018-Apr-22 05:30 270 10.6
2018-Apr-22 05:20 10.6
2018-Apr-22 05:10 232 10.6
2018-Apr-22 05:00 232 10.6
2018-Apr-22 04:50 270 10.6
2018-Apr-22 04:40 210 10.6
2018-Apr-22 04:30 209 10.6
2018-Apr-22 04:20 210 10.6
2018-Apr-22 04:09 225 10.6
2018-Apr-22 03:59 217 10.6
2018-Apr-22 03:49 212 10.6
2018-Apr-22 03:39 171 11.1
2018-Apr-22 03:29 270 11.1
2018-Apr-22 03:19 270 11.1
2018-Apr-22 03:09 239 11.1
2018-Apr-22 02:59 225 11.7
2018-Apr-22 02:49 209 11.7
2018-Apr-22 02:39 225 11.7
2018-Apr-22 02:29 215 11.7
2018-Apr-22 02:19 192 11.7
2018-Apr-22 02:09 206 12.2
2018-Apr-22 01:59 270 12.2
2018-Apr-22 01:49 216 12.2
2018-Apr-22 01:39 195 12.2
2018-Apr-22 01:29 195 12.2
2018-Apr-22 01:19 183 12.2
2018-Apr-22 01:09 187 12.2
2018-Apr-22 00:59 192 12.2
2018-Apr-22 00:49 206 12.2
2018-Apr-22 00:39 217 12.2
2018-Apr-22 00:29 204 12.8
2018-Apr-22 00:19 218 12.8
2018-Apr-22 00:09 045 12.8
2018-Apr-21 23:59 030 13.3
2018-Apr-21 23:49 090 13.3
2018-Apr-21 23:39 343 13.3
2018-Apr-21 23:29 355 0 gusting 2 13.3
2018-Apr-21 23:18 351 0 gusting 2 13.3
2018-Apr-21 23:08 340 0 gusting 2 13.9
2018-Apr-21 22:58 024 13.9
2018-Apr-21 22:48 352 0 gusting 2 13.9
2018-Apr-21 22:38 349 0 gusting 2 14.4
2018-Apr-21 22:28 14.4
2018-Apr-21 22:18 329 0 gusting 2 15.0
2018-Apr-21 22:08 270 15.0
2018-Apr-21 21:58 270 15.0
2018-Apr-21 21:48 270 15.0
2018-Apr-21 21:38 270 15.6
2018-Apr-21 21:28 270 15.6
2018-Apr-21 21:18 270 15.6
2018-Apr-21 21:08 270 16.1
2018-Apr-21 20:58 270 16.1
2018-Apr-21 20:48 270 16.1
2018-Apr-21 20:38 270 16.7
2018-Apr-21 20:28 303 16.7
2018-Apr-21 20:18 270 16.7
2018-Apr-21 20:08 270 17.2
2018-Apr-21 19:58 270 17.2
2018-Apr-21 19:48 270 17.8
2018-Apr-21 19:38 270 18.3
2018-Apr-21 19:28 225 18.3
2018-Apr-21 19:18 270 18.9
2018-Apr-21 19:08 270 18.9
2018-Apr-21 18:58 305 0 gusting 2 19.4
2018-Apr-21 18:48 270 20.0
2018-Apr-21 18:38 315 0 gusting 2 20.0
2018-Apr-21 18:28 315 0 gusting 2 20.6
2018-Apr-21 18:18 305 20.6
2018-Apr-21 18:07 302 0 gusting 2 21.1
2018-Apr-21 17:57 302 21.7
2018-Apr-21 17:47 302 21.7
2018-Apr-21 17:37 312 0 gusting 2 22.2
2018-Apr-21 17:27 270 22.8
2018-Apr-21 17:17 315 0 gusting 3 23.9
2018-Apr-21 17:07 315 0 gusting 2 23.9
2018-Apr-21 16:57 270 0 gusting 2 25.0
2018-Apr-21 16:47 270 0 gusting 3 25.0
2018-Apr-21 16:37 191 0 gusting 3 25.6
2018-Apr-21 16:27 304 0 gusting 5 25.6
2018-Apr-21 16:17 354 0 gusting 2 25.6
2018-Apr-21 16:07 351 0 gusting 5 25.6
2018-Apr-21 15:57 355 0 gusting 4 26.1
2018-Apr-21 15:47 348 0 gusting 4 26.1
2018-Apr-21 15:37 018 0 gusting 2 26.1
2018-Apr-21 15:27 020 0 gusting 4 25.6
2018-Apr-21 15:17 045 1 gusting 5 25.6
2018-Apr-21 15:07 358 1 gusting 7 26.7
2018-Apr-21 14:57 357 1 gusting 5 26.7
2018-Apr-21 14:47 348 1 gusting 4 26.7
2018-Apr-21 14:37 336 0 gusting 5 26.7
2018-Apr-21 14:27 063 0 gusting 4 26.7
2018-Apr-21 14:17 26.7
2018-Apr-21 14:07 344 1 gusting 5 27.2
2018-Apr-21 13:57 351 0 gusting 6 26.7
2018-Apr-21 13:47 001 1 gusting 6 26.7
2018-Apr-21 13:37 344 2 gusting 11 26.7
2018-Apr-21 13:27 270 0 gusting 5 26.7
2018-Apr-21 13:16 164 0 gusting 5 26.7
2018-Apr-21 13:06 309 0 gusting 5 26.7
2018-Apr-21 12:56 168 0 gusting 7 26.7
2018-Apr-21 12:46 310 0 gusting 3 26.7
2018-Apr-21 12:36 143 0 gusting 2 26.7
2018-Apr-21 12:26 225 0 gusting 3 26.7
2018-Apr-21 12:16 135 0 gusting 4 26.7
2018-Apr-21 12:06 270 0 gusting 3 26.7
2018-Apr-21 11:56 315 1 gusting 4 26.1
2018-Apr-21 11:46 315 0 gusting 5 26.1
2018-Apr-21 11:36 320 1 gusting 4 25.6
2018-Apr-21 11:26 180 0 gusting 4 25.6
2018-Apr-21 11:16 300 0 gusting 3 25.6
2018-Apr-21 11:06 180 0 gusting 3 25.6
2018-Apr-21 10:56 170 0 gusting 3 25.6
2018-Apr-21 10:46 322 1 gusting 6 25.6
2018-Apr-21 10:36 320 0 gusting 2 25.6
2018-Apr-21 10:26 008 1 gusting 5 25.6
2018-Apr-21 10:16 25.6
2018-Apr-21 10:06 352 1 gusting 3 25.6
2018-Apr-21 09:56 351 2 gusting 5 25.6
2018-Apr-21 09:46 351 1 gusting 4 25.6
2018-Apr-21 09:36 354 2 gusting 5 25.0
2018-Apr-21 09:26 349 2 gusting 3 25.0
2018-Apr-21 09:16 349 2 gusting 5 25.0
2018-Apr-21 09:06 349 2 gusting 5 24.4
2018-Apr-21 08:56 350 2 gusting 6 23.9
2018-Apr-21 08:46 351 2 gusting 3 23.3
2018-Apr-21 08:36 354 1 gusting 5 22.2
2018-Apr-21 08:26 351 2 gusting 4 21.7
2018-Apr-21 08:16 355 0 gusting 2 20.6
2018-Apr-21 08:05 350 1 gusting 2 18.9
2018-Apr-21 07:55 350 1 gusting 2 18.9
2018-Apr-21 07:45 351 1 gusting 2 17.8
2018-Apr-21 07:35 354 0 gusting 2 17.2
2018-Apr-21 07:25 17.2
2018-Apr-21 07:15 013 15.6
2018-Apr-21 07:05 010 15.6
2018-Apr-21 06:55 023 0 gusting 1 15.0
2018-Apr-21 06:45 020 14.4
2018-Apr-21 06:35 030 13.9
2018-Apr-21 06:25 035 13.3
2018-Apr-21 06:15 035 13.3
2018-Apr-21 06:05 049 13.3
2018-Apr-21 05:55 045 13.3
2018-Apr-21 05:45 090 12.8
2018-Apr-21 05:35 045 12.8
2018-Apr-21 05:25 111 0 gusting 2 12.8
2018-Apr-21 05:15 024 12.8
2018-Apr-21 05:05 090 13.3
2018-Apr-21 04:55 090 13.3
2018-Apr-21 04:45 112 0 gusting 2 13.3
2018-Apr-21 04:35 090 13.9
2018-Apr-21 04:25 090 0 gusting 2 13.9
2018-Apr-21 04:15 121 0 gusting 3 13.9
2018-Apr-21 04:05 055 14.4
2018-Apr-21 03:55 090 14.4
2018-Apr-21 03:45 035 0 gusting 2 15.0
2018-Apr-21 03:35 013 0 gusting 2 15.0
2018-Apr-21 03:25 011 0 gusting 1 15.0
2018-Apr-21 03:20 011 0 gusting 1 15.0
2018-Apr-21 03:09 005 0 gusting 1 15.0
2018-Apr-21 02:59 002 0 gusting 2 14.4
2018-Apr-21 02:49 354 0 gusting 2 14.4
2018-Apr-21 02:39 13.9
2018-Apr-21 02:29 001 0 gusting 2 13.9
2018-Apr-21 02:19 090 14.4
2018-Apr-21 02:09 357 0 gusting 2 15.0
2018-Apr-21 01:44 090 15.0
2018-Apr-21 01:34 090 15.0
2018-Apr-21 01:24 001 0 gusting 2 15.0
2018-Apr-21 01:14 352 0 gusting 2 15.0
2018-Apr-21 01:04 357 0 gusting 2 15.0
2018-Apr-21 00:54 353 0 gusting 2 15.0
2018-Apr-21 00:44 15.0
2018-Apr-21 00:34 040 0 gusting 2 15.0
2018-Apr-21 00:24 039 0 gusting 3 15.6
2018-Apr-21 00:14 015 0 gusting 2 15.6
2018-Apr-21 00:04 001 0 gusting 2 15.6
2018-Apr-20 23:54 15.0
2018-Apr-20 23:44 006 0 gusting 1 15.0
2018-Apr-20 23:34 002 0 gusting 2 14.4
2018-Apr-20 23:24 356 0 gusting 2 13.3
2018-Apr-20 23:14 357 0 gusting 2 13.3
2018-Apr-20 23:04 008 0 gusting 2 13.3
2018-Apr-20 22:54 356 0 gusting 2 13.9
2018-Apr-20 22:44 045 13.9
2018-Apr-20 22:34 027 0 gusting 2 13.9
2018-Apr-20 22:24 059 13.9
2018-Apr-20 22:14 039 13.9
2018-Apr-20 22:03 090 14.4
2018-Apr-20 21:53 012 14.4
2018-Apr-20 21:43 007 14.4
2018-Apr-20 21:33 023 14.4
2018-Apr-20 21:23 090 15.0
2018-Apr-20 21:13 035 15.6
2018-Apr-20 21:03 003 15.6
2018-Apr-20 20:53 345 0 gusting 2 16.1
2018-Apr-20 20:43 349 16.1
2018-Apr-20 20:33 354 0 gusting 2 16.7
2018-Apr-20 20:23 035 16.7
2018-Apr-20 20:13 026 16.7
2018-Apr-20 20:03 16.7